Regional Weather Roundup
Issued by NWS Lake Charles, LA

Home | Current Version | Previous Version | Text Only | Print | Product List | Glossary On
Versions: 1 2 3 4 5 6 7 8 9 10 11 12 13 14 15 16 17 18 19 20 21 22 23 24 25 26 27 28
000
ASUS44 KLCH 210110
RWRLCH
REGIONAL WEATHER ROUNDUP
NATIONAL WEATHER SERVICE LAKE CHARLES LA
700 PM CST MON FEB 20 2017

Note: "fair" indicates few or no clouds below 12,000 feet with no
significant weather and/or obstructions to visibility.


ACROSS SOUTHEAST TEXAS

CITY           SKY/WX    TMP DP  RH WIND       PRES   REMARKS
BEAUMONT       CLOUDY    61  58  90 NE13      29.94R
BEAUMONT CITY  LGT RAIN  61  59  91 E9        29.95S
ORANGE         LGT RAIN  61  60  97 MISG      29.99R
JASPER         LGT RAIN  60  59  96 E5        29.98R
$$

ACROSS CENTRAL LOUISIANA

CITY           SKY/WX    TMP DP  RH WIND       PRES   REMARKS
LEESVILLE      RAIN      59  58  96 N6        29.95R
FULLERTON      LGT RAIN  60  58  92 CALM      29.93S
ALEXANDRIA INT LGT RAIN  59  58  96 NW10      29.93F
ESLER FIELD      N/A    N/A N/A N/A MISG      29.93F
DERIDDER       RAIN      59  58  96 CALM      29.97S
OAKDALE        RAIN      60  58  94 N6        29.95S
OPELOUSAS      CLOUDY    59  58  94 MISG      29.94S
$$

ACROSS SOUTHWEST AND SOUTH CENTRAL LOUISIANA

CITY           SKY/WX    TMP DP  RH WIND       PRES   REMARKS
SULPHUR        RAIN      61  60  95 N3        29.99R
LAKE CHARLES   HVY RAIN  61  61 100 N8        29.97R FOG
CHENNAULT INT  RAIN      59  59 100 NW5       29.99R
CAMERON PHI    CLOUDY    61  61 100 N6        29.97R
DEQUINCY       DRIZZLE   58  58  99 CALM      29.98R
JENNINGS       RAIN      60  58  94 NW8       29.97R
LAFAYETTE        N/A    N/A N/A N/A MISG      29.94S
NEW IBERIA     HVY RAIN  61  58  90 NW14      29.95R FOG
ABBEVILLE      CLOUDY    61  61 100 NW12      29.94F
PATTERSON      LGT RAIN  72  70  93 SE10      29.91F
SALT POINT       N/A     70  69  97 SE13      29.89F
$$

SELECTED SITES ACROSS THE REGION

CITY           SKY/WX    TMP DP  RH WIND       PRES   REMARKS
HOUSTON BUSH   MOCLDY    61  59  93 SW3       29.98R
HOUSTON HOBBY  CLOUDY    61  60  97 CALM      29.99R
GALVESTON      CLOUDY    64  61  90 NW9       29.97R
COLLEGE STAT   CLOUDY    63  60  90 MISG      29.96R
CONROE         LGT RAIN  60  59  96 CALM      29.97R
HUNTSVILLE     CLOUDY    61  59  93 S3        29.97R
LUFKIN         LGT RAIN  57  57 100 NW7       29.91F
SHREVEPORT     LGT RAIN  60  59  96 CALM      29.94F
MONROE         HVY RAIN  61  59  93 W14       29.94R FOG
NATCHEZ MS     CLOUDY    73  63  68 SE15G22   29.89F
BATON ROUGE    CLOUDY    72  67  84 E15       29.90F
N.O. INTL ARPT CLOUDY    72  68  87 SE15      29.96F
SLIDELL        CLOUDY    71  64  78 SE9G18    29.98F
$$

MARINE REPORTS

STATION/POSITION TIME  SKY/WX   TEMP    WIND        PRES    VSBY
                                AIR SEA DIR/SP/G
                 (UTC)          (F)     (DEG/KT/KT) (MB)    (MI)
BUOY 30 S HIGH I 2350            63 64   30/ 16/ 19 1013.6
WVE H/P(F/S)=  3/ 7

SEA RIM ST PARK  0100            61      40/ 12/ 15 1014.3S
PORT ARTHUR      0048               65   50/  5/  8 1014.6R
SABINE PASS N    0048            62 68   50/ 10/ 13 1015.6R
TEXAS POINT      NOT AVBL
CALCASIEU PASS   0048            62 66  360/  6/  7   N/A
LK CHARLES BEACH 0048            61 67              1016.2R
MARSH ISLAND     0000            61                   N/A
FRESH WATER LOCK 0048            60 67  280/ 12/ 17 1016.0R
AMERADA PASS     0048            71 57  120/  9/ 18 1012.6F
$$




USA.gov is the U.S. government's official web portal to all federal, state and local government web resources and services.